User: anonymous   Login
Location: Drayton Valley
(53.2170°N, 114.9830°W)
Time: 15:51:49
(UTC-06:00)
Language:

MOZ.5/SAFIR/RUBIN 5/SL-8 - Orbit

View from above orbital plane
View from above orbital plane
View from above satellite
View from above satellite

Ground track
Ground track

The orbit data is extracted from the following two-line orbital elements,

1 28898U 05043G   16119.39114398  .00000118  00000-0  33613-4 0  9993
2 28898  97.8741 282.5820 0020950  54.8913 305.4248 14.60087560559301
Epoch (UTC): 28 April 2016 09:23:14
Eccentricity: 0.0020950
inclination: 97.8741°
perigee height: 678 km
apogee height: 708 km
right ascension of ascending node: 282.5820°
argument of perigee: 54.8913°
revolutions per day: 14.60087560
mean anomaly at epoch: 305.4248°
orbit number at epoch: 55930

The dashed part of the orbit path shows where the satellite is in the earth's shadow,  

DLR